CubeBel-2 (EU11S)
1 57175U 23091K   26115.81179623  .00014086  00000-0  51883-3 0  9999
2 57175  97.5090 178.6022 0008482 303.4541  56.5887 15.27916154156300
RS-38S
1 57189U 23091Z   26115.80663736  .00017947  00000-0  54105-3 0  9995
2 57189  97.5121 184.3036 0006144 249.2903 110.7681 15.34352396156654
SONATE-2
1 59112U 24043Q   26115.36644163  .00040246  00000-0  60064-3 0  9994
2 59112  97.5476 262.7011 0006807  43.3685 316.8103 15.54934316119674
GRBBeta
1 60237U 24128C   26115.78150279  .00004079  00000-0  28477-3 0  9990
2 60237  61.9913  40.0697 0047083 123.6270 236.9328 15.06204708 98371
Curium One
1 60242U 24128H   26115.86189980  .00009696  00000-0  56466-3 0  9995
2 60242  61.9804  30.9798 0046917 119.8575 240.7196 15.11655151 98549
ROBUSTA-3A
1 60243U 24128J   26115.86424985  .00010121  00000-0  60157-3 0  9990
2 60243  61.9879  33.1586 0047957 117.4100 243.1886 15.10841331 98511
CatSat
1 60246U 24125J   26115.59045300  .00046391  00000-0  72822-3 0  9990
2 60246  97.2153 327.6190 0023971  21.4935 338.7319 15.53198126 99217
HYPERVIEW-1G (RS66S)
1 61772U 24199AP  26115.72933625  .00079078  00000-0  80070-3 0  9999
2 61772  97.2987 353.2447 0009450 108.2737 251.9552 15.64970556126445
AO-123
1 61781U 24199AY  26115.82778411  .00009166  00000-0  27222-3 0  9991
2 61781  97.3080 344.9796 0015441 132.3111 227.9444 15.34887022125898
JINJUSat 1B
1 63210U 25052A   26115.65407147  .00016638  00000-0  54306-3 0  9990
2 63210  97.4063  12.3898 0001173 275.7527  84.3581 15.31844855 62057
NUSHSAT 1
1 63211U 25052B   26115.70987522  .00020281  00000-0  61975-3 0  9996
2 63211  97.4039  12.8471 0000870 292.8747  67.2403 15.33910653 62099
TEVEL2-4
1 63213U 25052D   26115.65942447  .00018614  00000-0  59027-3 0  9991
2 63213  97.3959  12.0228 0001035 356.9650   3.1585 15.32748517 62066
TEVEL2-5
1 63214U 25052E   26115.15215563  .00019546  00000-0  62277-3 0  9995
2 63214  97.3957  11.4778 0001141 357.2193   2.9043 15.32586108 61984
TEVEL2-6
1 63215U 25052F   26115.42436666  .00019682  00000-0  62762-3 0  9995
2 63215  97.3965  11.7349 0001144 355.2286   4.8945 15.32557607 62025
TEVEL2-1
1 63217U 25052H   26115.50153338  .00017217  00000-0  55761-3 0  9991
2 63217  97.3935  11.4958 0001802   5.5972 354.5289 15.32086450 62024
TEVEL2-3
1 63218U 25052J   26115.23663825  .00019171  00000-0  61973-3 0  9992
2 63218  97.3940  11.2470 0001849   7.6495 352.4774 15.32124691 61982
TEVEL2-2
1 63219U 25052K   26115.24082611  .00019275  00000-0  62382-3 0  9992
2 63219  97.3935  11.2374 0001917   6.2674 353.8591 15.32085482 61986
TEVEL2-9
1 63237U 25052AD  26115.67559880  .00016104  00000-0  55187-3 0  9999
2 63237  97.3998  11.1536 0005428 348.3210  11.7904 15.30264538 61999
TEVEL2-7
1 63238U 25052AE  26115.64174729  .00015978  00000-0  55187-3 0  9990
2 63238  97.4005  11.0565 0005525 348.5841  11.5274 15.30009136 61989
TEVEL2-8
1 63239U 25052AF  26115.64940238  .00016246  00000-0  56139-3 0  9994
2 63239  97.4002  11.0429 0005572 349.3111  10.8010 15.29990392 61988
HYDRA-W
1 63490U 25052BL  26113.93882235  .05662090  24406-5  29537-2 0  9996
2 63490  97.3690  18.2798 0008685 203.5899 156.4993 16.20186780 62336
HADES-ICM (SO-125)
1 63492U 25052BN  26115.67180174  .00314857  00000-0  19187-2 0  9993
2 63492  97.3833  18.4370 0002995 129.5792 230.5739 15.76542391 62495
SPIRONE
1 66657U 25274H   26115.79294075  .00001648  00000-0  16250-3 0  9994
2 66657  97.7468  45.8468 0011911 181.1888 178.9305 14.93323024 22408
K-HERO
1 66660U 25274L   26115.81240417  .00002273  00000-0  21961-3 0  9992
2 66660  97.7476  45.9880 0013679 186.6490 173.4551 14.93758320 22417
SNUGLITE-III DURI
1 66661U 25274M   26115.73498059  .00001515  00000-0  14787-3 0  9997
2 66661  97.7472  45.9300 0014270 188.4196 171.6787 14.93818532 22404
SilverSat
1 66909U 98067XV  26113.44966717  .07226154  12288-4  11979-2 0  9998
2 66909  51.6027 190.0749 0007952 333.4666  26.5949 16.32457272 22308
SAKHACUBE-CHOLBON
1 67290U 25313AU  26115.84338919  .00011324  00000-0  47098-3 0  9990
2 67290  97.3948 191.5681 0009986 171.4188 188.7221 15.23894492 18004
RS95S (QMR-KWT-2)
1 67291U 25313AV  26115.74115078  .00014178  00000-0  57193-3 0  9996
2 67291  97.3946 191.5501 0009835 170.9943 189.1473 15.24871562 17995
Ten-Koh2
1 68261U 25241B   26115.47508884  .00007090  00000-0  30918-3 0  9996
2 68261  51.6462 210.4027 0005458 333.4474  26.6224 15.23209430  6877
JACK-002
1 68417U 26067B   26115.59510122  .00006620  00000-0  32218-3 0  9990
2 68417  97.4528  74.8769 0004124  96.1253 264.0452 15.18709070  3960
DISCO 2
1 68431U 26067R   26115.53707343  .00007925  00000-0  38990-3 0  9995
2 68431  97.4564  74.8144 0003176 136.0285 224.1203 15.18270337  3957
HADES-SA (SpinnyONE)
1 68446U 26067AG  26115.55821044  .00018303  00000-0  92098-3 0  9999
2 68446  97.4375  74.7276 0004670 252.1972 107.8752 15.17261050  3947
PARUS-6U1
1 68456U 26067AS  26115.55902637  .00006115  00000-0  31321-3 0  9998
2 68456  97.4513  74.7689 0003925 236.0520 124.0341 15.16946931  3955
SAL-E
1 68458U 26067AU  26115.62519240  .00008512  00000-0  43412-3 0  9999
2 68458  97.4440  74.8101 0003924 249.7677 110.3135 15.16983134  3965
IO-86
1 40931U          25360.30710720  .00000000  00000-0  12800-3 0    00
2 40931   6.0006 332.5373 0012733 338.8432   8.1437 14.79075515    01
LILIUM-4                
1 71922C 26067AC  26089.50133053 -.00014632  00000+0 -74472-3 0    04
2 71922  97.4497  49.1617 0004341   5.9603 355.7042 15.16896692    16
